Date String (YYYY-MM-DD hh:mm:ss) UTC,Instrument flags,Ambient pressure (hPa),Sample flow (lpm),Bypass flow (lpm),Sample temperature (°C),Ambient temperature (°C),ASC tube jacket temperature (°C),LED temperature (°C),Box temperature (°C),Sample RH (%),Span deviation,Mass concentration (μg/m³),Mass concentration (μg/m³),Mass concentration (μg/m³)
DateTimeUTC,F1_M11,P_M11,Q1_M11,Q2_M11,T1_M11,T2_M11,T3_M11,T4_M11,T5_M11,U1_M11,ZSPAN_M11,X0_M11,X2_M11,X1_M11
2023-05-15 04:00:00,,0844.0,5.00,0.00,29.4,27.6,00.0,37.9,30.9,27.2,0000.0,0000.88,0000.51,0000.34
2023-05-15 04:01:00,,0844.1,4.99,0.00,29.4,27.6,00.0,37.9,30.9,27.2,0000.0,0000.94,0000.53,0000.35
2023-05-15 04:02:00,,0844.1,5.00,0.00,29.4,27.6,00.0,37.9,30.9,27.2,0000.0,0000.98,0000.56,0000.36
2023-05-15 04:03:00,,0844.1,5.00,0.00,29.4,27.7,00.0,37.9,30.9,27.2,0000.0,0001.00,0000.57,0000.37
2023-05-15 04:04:00,,0844.1,5.00,0.00,29.4,27.7,00.0,37.9,30.9,27.3,0000.0,0001.03,0000.59,0000.38
2023-05-15 04:05:00,,0844.1,5.01,0.00,29.4,27.7,00.0,37.9,30.9,27.3,0000.0,0001.07,0000.61,0000.39
2023-05-15 04:06:00,,0844.0,5.00,0.00,29.4,27.7,00.0,37.9,30.9,27.3,0000.0,0001.12,0000.64,0000.41
2023-05-15 04:07:00,,0844.1,4.99,0.00,29.4,27.7,00.0,37.9,30.9,27.3,0000.0,0001.14,0000.65,0000.42
2023-05-15 04:08:00,,0844.1,4.99,0.00,29.4,27.7,00.0,37.9,30.9,27.4,0000.0,0001.08,0000.64,0000.44
2023-05-15 04:09:00,,0844.1,5.01,0.00,29.4,27.7,00.0,37.8,30.9,27.3,0000.0,0001.87,0000.68,0000.46
2023-05-15 04:10:00,,0844.1,5.01,0.00,29.4,27.7,00.0,37.8,30.9,27.4,0000.0,0002.76,0000.72,0000.48
2023-05-15 04:11:00,,0844.1,4.99,0.00,29.4,27.6,00.0,37.8,30.9,27.3,0000.0,0002.73,0000.71,0000.50
2023-05-15 04:12:00,,0844.1,5.00,0.00,29.4,27.6,00.0,37.8,30.9,27.3,0000.0,0002.68,0000.70,0000.51
2023-05-15 04:13:00,,0844.1,5.00,0.00,29.4,27.6,00.0,37.8,30.9,27.4,0000.0,0002.69,0000.70,0000.53
2023-05-15 04:14:00,,0844.1,5.01,0.00,29.3,27.6,00.0,37.8,30.9,27.3,0000.0,0002.68,0000.70,0000.54
2023-05-15 04:15:00,,0844.1,4.99,0.00,29.3,27.6,00.0,37.8,30.9,27.3,0000.0,0002.78,0000.72,0000.56
2023-05-15 04:16:00,,0844.1,5.00,0.00,29.3,27.6,00.0,37.8,30.9,27.4,0000.0,0002.80,0000.73,0000.58
2023-05-15 04:17:00,,0844.1,5.01,0.00,29.3,27.6,00.0,37.8,30.9,27.4,0000.0,0002.79,0000.73,0000.60
2023-05-15 04:18:00,,0844.1,4.99,0.00,29.3,27.6,00.0,37.8,30.9,27.4,0000.0,0002.79,0000.74,0000.61
2023-05-15 04:19:00,,0844.1,4.99,0.00,29.3,27.6,00.0,37.8,30.8,27.4,0000.0,0002.88,0000.73,0000.62
2023-05-15 04:20:00,,0844.2,5.00,0.00,29.3,27.5,00.0,37.8,30.8,27.3,0000.0,0003.32,0000.74,0000.63
2023-05-15 04:21:00,,0844.1,5.01,0.00,29.3,27.5,00.0,37.8,30.8,27.3,0000.0,0002.20,0000.75,0000.66
2023-05-15 04:22:00,,0844.1,5.01,0.00,29.3,27.5,00.0,37.7,30.8,27.2,0000.0,0002.22,0000.77,0000.68
2023-05-15 04:23:00,,0844.2,5.01,0.00,29.2,27.4,00.0,37.7,30.7,27.2,0000.0,0002.29,0000.81,0000.71
2023-05-15 04:24:00,,0844.2,4.99,0.00,29.2,27.4,00.0,37.7,30.7,27.3,0000.0,0002.29,0000.82,0000.73
2023-05-15 04:25:00,,0844.2,4.99,0.00,29.2,27.4,00.0,37.7,30.7,27.3,0000.0,0002.33,0000.84,0000.75
2023-05-15 04:26:00,,0844.2,5.01,0.00,29.2,27.4,00.0,37.7,30.7,27.3,0000.0,0002.24,0000.84,0000.75
2023-05-15 04:27:00,,0844.2,4.99,0.00,29.2,27.4,00.0,37.7,30.7,27.3,0000.0,0002.24,0000.86,0000.77
2023-05-15 04:28:00,,0844.2,4.99,0.00,29.2,27.4,00.0,37.7,30.7,27.4,0000.0,0002.24,0000.86,0000.77
2023-05-15 04:29:00,,0844.2,5.01,0.00,29.2,27.4,00.0,37.7,30.7,27.4,0000.0,0002.23,0000.86,0000.78
2023-05-15 04:30:00,,0844.2,5.01,0.00,29.2,27.4,00.0,37.7,30.7,27.3,0000.0,0002.10,0000.86,0000.78
2023-05-15 04:31:00,,0844.3,5.00,0.00,29.2,27.4,00.0,37.7,30.7,27.4,0000.0,0001.16,0000.84,0000.77
2023-05-15 04:32:00,,0844.2,4.99,0.00,29.1,27.4,00.0,37.6,30.7,27.4,0000.0,0001.14,0000.81,0000.75
2023-05-15 04:33:00,,0844.2,5.00,0.00,29.1,27.4,00.0,37.6,30.7,27.5,0000.0,0001.12,0000.79,0000.72
2023-05-15 04:34:00,,0844.2,5.01,0.00,29.1,27.4,00.0,37.6,30.7,27.5,0000.0,0001.07,0000.77,0000.70
2023-05-15 04:35:00,,0844.2,4.98,0.00,29.1,27.4,00.0,37.6,30.7,27.4,0000.0,0001.03,0000.75,0000.68
2023-05-15 04:36:00,,0844.2,5.00,0.00,29.1,27.4,00.0,37.6,30.7,27.3,0000.0,0001.00,0000.74,0000.68
2023-05-15 04:37:00,,0844.1,5.01,0.00,29.1,27.4,00.0,37.6,30.6,27.2,0000.0,0000.98,0000.73,0000.68
2023-05-15 04:38:00,,0844.2,5.01,0.00,29.1,27.4,00.0,37.6,30.6,27.2,0000.0,0000.95,0000.73,0000.68
2023-05-15 04:39:00,,0844.1,4.98,0.00,29.1,27.4,00.0,37.6,30.6,27.2,0000.0,0001.00,0000.75,0000.68
2023-05-15 04:40:00,,0844.2,5.01,0.00,29.1,27.3,00.0,37.6,30.6,27.2,0000.0,0001.03,0000.77,0000.70
2023-05-15 04:41:00,,0844.2,5.01,0.00,29.1,27.3,00.0,37.6,30.6,27.2,0000.0,0001.14,0000.81,0000.72
2023-05-15 04:42:00,,0844.2,5.01,0.00,29.1,27.3,00.0,37.6,30.6,27.2,0000.0,0001.16,0000.83,0000.74
2023-05-15 04:43:00,,0844.2,4.99,0.00,29.1,27.3,00.0,37.6,30.6,27.2,0000.0,0001.18,0000.86,0000.76
2023-05-15 04:44:00,,0844.2,4.99,0.00,29.1,27.3,00.0,37.5,30.6,27.2,0000.0,0001.21,0000.89,0000.79
2023-05-15 04:45:00,,0844.2,5.01,0.00,29.1,27.3,00.0,37.5,30.6,27.3,0000.0,0001.25,0000.91,0000.82
2023-05-15 04:46:00,,0844.2,5.00,0.00,29.1,27.3,00.0,37.5,30.6,27.4,0000.0,0001.27,0000.92,0000.83
2023-05-15 04:47:00,,0844.2,5.00,0.00,29.1,27.3,00.0,37.5,30.6,27.3,0000.0,0001.27,0000.92,0000.83
2023-05-15 04:48:00,,0844.2,5.00,0.00,29.0,27.3,00.0,37.5,30.6,27.3,0000.0,0001.29,0000.94,0000.83
2023-05-15 04:49:00,,0844.2,5.00,0.00,29.0,27.3,00.0,37.5,30.6,27.3,0000.0,0001.29,0000.94,0000.84
2023-05-15 04:50:00,,0844.2,4.99,0.00,29.0,27.3,00.0,37.5,30.6,27.3,0000.0,0001.29,0000.95,0000.86
2023-05-15 04:51:00,,0844.2,5.00,0.00,29.0,27.3,00.0,37.5,30.5,27.2,0000.0,0001.31,0000.97,0000.88
2023-05-15 04:52:00,,0844.1,5.00,0.00,29.0,27.3,00.0,37.5,30.5,27.3,0000.0,0001.30,0000.98,0000.90
2023-05-15 04:53:00,,0844.1,5.00,0.00,29.0,27.2,00.0,37.5,30.5,27.3,0000.0,0001.26,0000.99,0000.92
2023-05-15 04:54:00,,0844.1,5.00,0.00,29.0,27.2,00.0,37.5,30.5,27.3,0000.0,0001.29,0001.01,0000.94
2023-05-15 04:55:00,,0844.2,5.00,0.00,29.0,27.2,00.0,37.5,30.5,27.3,0000.0,0001.30,0001.03,0000.97
2023-05-15 04:56:00,,0844.2,5.00,0.00,29.0,27.2,00.0,37.4,30.5,27.3,0000.0,0001.34,0001.06,0001.00
2023-05-15 04:57:00,,0844.2,5.00,0.00,29.0,27.2,00.0,37.4,30.5,27.3,0000.0,0001.44,0001.12,0001.05
2023-05-15 04:58:00,,0844.2,5.00,0.00,29.0,27.2,00.0,37.4,30.5,27.3,0000.0,0001.52,0001.18,0001.09
2023-05-15 04:59:00,,0844.1,5.00,0.00,29.0,27.2,00.0,37.4,30.5,27.3,0000.0,0001.55,0001.21,0001.14
